TIME,DELAY(SENSOR),PRES,T(CTD),SAL,OXYGEN,RAWTEMP,T(OPTODE),TCPHASE,FLUOR,BETA(BETA700),BETA(BETA412),BETA(BETA440),CDOM,C(CSC),ED(ED412.40),ED(ED444.00),ED(ED489.70),ED(ED554.30),LU(LU411.80),LU(LU443.40),LU(LU489.60),LU(LU554.10),COMP,TILTX,TILTX(TILTY),CHECK
1359150145,5807,497.1400146484375000,6.6873998641967770,34.1128005981445300,81.5776062011718800,597.6162719726562000,6.6612420082092285,48.6913490295410160,51,104,86,79,78,15039,2147752676,2147426605,2148006994,2147872265,2147629001,2147075392,2148243940,2147199808,1479,4,13,5753
1359150310,5803,483.7300109863281000,6.8724999427795410,34.1142997741699200,88.0819702148437500,590.9902954101562000,6.8749289512634280,47.8493003845214840,51,104,86,79,78,15040,2147750582,2147426121,2148006692,2147875584,2147627977,2147076818,2148243053,2147199149,1422,4,13,59348
1359150413,5809,473.2399902343750000,6.9952001571655270,34.1094017028808600,94.5580062866211000,587.6848754882812000,6.9813728332519530,47.0840415954589840,52,104,88,79,78,15035,2147747648,2147425737,2148005083,2147871570,2147624941,2147078363,2148244736,2147200347,2281,4,13,9943
1359150523,5807,461.2600097656250000,7.1001000404357910,34.1004981994628900,100.8175964355468800,584.6237792968750000,7.0798611640930180,46.3693389892578100,52,103,87,79,77,15040,2147746450,2147420982,2148005750,2147873261,2147627300,2147080347,2148243154,2147200813,1982,4,13,35555
1359150642,5808,449.3299865722656000,7.2217998504638670,34.0992012023925800,105.8244018554687500,580.1583251953125000,7.2233829498291020,45.7808990478515600,51,103,85,78,78,15041,2147749750,2147421805,2148007643,2147872064,2147626212,2147076022,2148239570,2147200612,1901,4,14,30915
1359150763,5807,438.7000122070312500,7.4583001136779785,34.0971984863281250,112.1843032836914000,573.2979736328125000,7.4435200691223145,45.0280303955078100,50,106,89,79,77,15037,2147747529,2147425673,2148006747,2147870336,2147628882,2147076022,2148236772,2147198208,2330,4,13,14099
1359150898,5807,426.8699951171875000,7.5883002281188965,34.0998992919921900,117.7282028198242200,569.3765258789062000,7.5691680908203125,44.4241600036621100,51,104,88,79,76,15036,2147746450,2147423533,2148008594,2147871908,2147623414,2147084589,2148238848,2147202358,2335,4,13,63548
1359151019,5808,416.5000000000000000,7.8111000061035160,34.1095008850097660,118.8626022338867200,562.6442871093750000,7.7845611572265625,44.2019691467285160,50,105,86,81,78,15036,2147743625,2147425673,2148003035,2147874203,2147624813,2147085494,2148238738,2147200338,2909,3,13,35949
1359151151,5806,406.0899963378906000,8.0355997085571290,34.1178016662597660,122.4755020141601600,555.5371093750000000,8.0115318298339840,43.7403488159179700,51,104,87,80,75,15038,2147743561,2147422336,2148003200,2147871469,2147623780,2147080082,2148231488,2147200530,1676,4,13,64706
1359151307,5806,394.9100036621094000,8.1990995407104500,34.0988006591796900,127.2979965209961000,550.3156738281250000,8.1780090332031250,43.2054100036621100,50,105,88,80,76,15036,2147743963,2147425206,2147999524,2147873462,2147624557,2147085650,2148231990,2147199451,197,4,13,14832
1359151483,5810,384.1099853515625000,8.2975997924804690,34.1024017333984400,136.0579986572265600,546.8521118164062000,8.2883167266845700,42.3606605529785160,50,105,86,80,76,15036,2147741467,2147423817,2148004425,2147874733,2147619876,2147086793,2148234788,2147202038,2782,4,13,11540
1359151648,5808,372.3500061035156000,8.6232995986938480,34.0884017944335940,145.7978973388672000,536.2573242187500000,8.6251316070556640,41.3475608825683600,50,104,90,81,75,15038,2147743332,2147426569,2148002176,2147872859,2147619163,2147086811,2148235538,2147202934,3116,4,13,51754
1359151791,5810,362.1700134277344000,9.0495996475219730,34.1004981994628900,159.8166046142578000,523.3919067382812000,9.0329399108886720,40.0035896301269500,50,108,87,79,73,15036,2147737938,2147427090,2148006134,2147876141,2147616704,2147090770,2148229193,2147205257,453,4,13,24702
1359151938,5810,349.8999938964844000,9.4548997879028320,34.1072998046875000,173.9416961669922000,510.2839965820312500,9.4471492767333980,38.7300910949707000,49,105,86,80,72,15032,2147738770,2147425728,2148005604,2147872804,2147615515,2147091483,2148229238,2147198646,828,4,13,52951
1359152048,5810,339.1900024414062500,9.8028001785278320,34.1108016967773440,181.6902008056640600,499.3414916992187500,9.7919807434082030,38.0027313232421900,49,107,86,80,72,15035,2147739410,2147424905,2148006875,2147870692,2147616246,2147097545,2148225984,2147204772,1562,4,13,55119
1359152161,5809,328.3099975585937500,10.0022001266479500,34.1105003356933600,187.2778015136718800,492.3905944824219000,10.0105895996093750,37.5086898803710940,50,104,86,81,72,15034,2147735478,2147424118,2148009078,2147872960,2147612269,2147098678,2148228470,2147203858,1600,3,13,59030
1359152282,5809,316.8500061035156000,10.4610996246337890,34.1265983581543000,194.8972930908203000,478.4963073730469000,10.4465999603271480,36.7812118530273440,50,103,85,81,71,15034,2147732708,2147424457,2148010669,2147873142,2147610989,2147103853,2148228480,2147204516,2280,4,13,36191
1359152403,5810,306.2999877929687500,10.9308004379272460,34.1318016052246100,199.9449005126953000,463.5203857421875000,10.9151697158813480,36.2179298400878900,49,105,86,80,70,15035,2147730404,2147426066,2148014125,2147869805,2147605220,2147105728,2148225563,2147201810,2186,3,14,43878
1359152537,5807,295.6600036621094000,11.3481998443603520,34.1582984924316400,205.0467071533203000,450.1380004882812500,11.3327398300170900,35.6892089843750000,50,103,88,80,69,15035,2147732818,2147432905,2148021824,2147871469,2147604982,2147110381,2148226706,2147205348,2102,4,13,54799
1359152680,5809,284.3599853515625000,11.8875999450683600,34.1484985351562500,206.3979949951172000,432.3546142578125000,11.8860702514648440,35.3222999572753900,48,107,89,79,69,15031,2147730477,2147434624,2148030793,2147872740,2147601782,2147115858,2148228562,2147205513,1213,3,14,40001
1359152837,5807,269.9100036621094000,12.7041997909545900,34.1838989257812500,208.3350982666015600,406.0109863281250000,12.7027597427368160,34.7914009094238300,49,103,88,80,69,15033,2147726939,2147439780,2148050770,2147870765,2147601435,2147129380,2148234011,2147207277,2306,4,13,18904
1359152947,5810,258.7000122070312500,13.4049997329711910,34.2324981689453100,208.8462982177734400,383.7625122070312500,13.3900203704833980,34.4161109924316400,49,102,87,79,68,15032,2147727926,2147452571,2148075026,2147871506,2147595858,2147134537,2148241883,2147209417,56,4,13,30615
1359153057,5807,248.8399963378906200,13.9503002166748050,34.2886009216308600,208.1647949218750000,365.1188049316406000,13.9644098281860350,34.1705093383789060,49,102,88,78,68,15030,2147722962,2147462665,2148101458,2147870948,2147591963,2147151872,2148245586,2147212553,3214,3,14,26319
1359153202,5811,237.9299926757812500,15.0560998916625980,34.3959999084472660,207.7277984619140600,327.7074890136719000,15.1134996414184570,33.6344604492187500,48,106,87,79,69,15026,2147724333,2147484434,2148148114,2147872027,2147589979,2147166034,2148272310,2147214802,1873,3,14,18424
1359153378,5809,226.9499969482422000,16.4410991668701170,34.5615997314453100,208.4759979248047000,284.7524108886719000,16.4286003112792970,32.9639892578125000,48,103,89,81,66,15023,2147724571,2147512932,2148202322,2147873462,2147585645,2147193819,2148292781,2147214061,191,3,14,30785
1359153523,5811,214.5000000000000000,17.1576004028320300,34.6595001220703100,209.7776947021484400,260.2553100585937500,17.1772804260253900,32.5411109924316400,49,102,86,80,67,15020,2147732251,2147570706,2148309915,2147874459,2147585152,2147228022,2148332434,2147221787,2891,3,13,3067
1359153633,5809,203.3600006103515600,17.8435001373291000,34.7555007934570300,211.4595947265625000,237.9468994140625000,17.8586597442626950,32.1335906982421900,49,105,86,79,64,15020,2147748626,2147651264,2148446180,2147872082,2147586934,2147285293,2148398171,2147225069,2447,3,15,57184
1359153699,5808,196.7500000000000000,18.2595005035400400,34.8166007995605500,213.0915069580078000,224.9770965576172000,18.2547302246093750,31.8638801574707030,50,104,88,81,65,15017,2147764224,2147714806,2148556507,2147872960,2147592466,2147328100,2148452269,2147232585,2915,3,15,37224
1359153774,5809,189.6900024414062500,18.7861995697021500,34.8955001831054700,214.3401947021484400,208.0655059814453000,18.7712097167968750,31.5634803771972660,50,100,85,80,63,15020,2147786578,2147800969,2148696841,2147875026,2147601426,2147384484,2148518208,2147239707,3447,2,15,36772
1359153829,5807,185.3699951171875000,19.0284004211425780,34.9338989257812500,215.7138977050781200,200.1761932373047000,19.0121994018554700,31.3823204040527340,50,102,86,81,64,15019,2147814345,2147866377,2148798802,2147873444,2147606829,2147422573,2148571529,2147240667,3048,2,15,20340
1359153884,5806,181.0099945068359400,19.1844005584716800,34.9502983093261700,215.6100006103515600,194.0773010253906200,19.1985301971435550,31.3047199249267580,51,104,88,80,65,15014,2147837293,2147944978,2148921270,2147876434,2147617481,2147476873,2148632859,2147251574,2721,2,15,64297
1359153939,5805,176.8399963378906200,19.4160003662109380,34.9793014526367200,215.1607055664062500,186.7044982910156200,19.4238204956054700,31.2287902832031250,53,104,88,81,64,15015,2147868214,2148032329,2149044891,2147874998,2147629659,2147530020,2148698816,2147257782,2329,2,15,11402
1359153994,5804,172.7500000000000000,19.8889999389648440,35.0466003417968750,214.8233032226562500,170.6882019042968800,19.9134597778320300,31.0305004119873050,54,104,86,80,64,15011,2147907099,2148126363,2149188214,2147875346,2147647387,2147594276,2148764150,2147259858,2306,2,15,49257
1359154049,5806,168.9400024414062500,20.2917003631591800,35.1251983642578100,217.5507965087890600,159.2362976074218800,20.2637901306152340,30.7341194152832030,53,104,88,79,64,15007,2147958875,2148257920,2149390555,2147876553,2147667108,2147675355,2148864694,2147269293,1696,2,15,24354
1359154128,5812,164.0299987792968800,20.4067993164062500,35.1475982666015600,220.4763031005859400,154.4452056884765600,20.4104309082031250,30.5191707611084000,54,107,87,82,63,15009,2148016301,2148392804,2149603355,2147876077,2147697097,2147773293,2148975853,2147274221,900,2,15,30593
1359154194,5807,160.5599975585937500,20.6429004669189450,35.1795997619628900,221.4465026855468800,147.1564025878906200,20.6335906982421880,30.3732490539550780,56,109,88,79,64,15004,2148031570,2148401408,2149604845,2147879323,2147703917,2147789650,2148980763,2147277275,635,2,15,54298
1359154271,5810,156.8300018310547000,20.7754993438720700,35.1981010437011700,222.4385070800781200,142.6669006347656200,20.7710990905761720,30.2637290954589840,59,109,90,81,63,14998,2148125869,2148625682,2149964022,2147879542,2147748214,2147935387,2149166784,2147290185,922,2,15,25358
1359154359,5804,152.6799926757812500,20.9449996948242200,35.2155990600585940,222.9546966552734400,137.6903991699218800,20.9235897064209000,30.1721591949462900,60,108,91,80,63,14996,2148201298,2148767341,2150179995,2147880155,2147785846,2148039085,2149287451,2147298669,3575,2,16,34070
1359154449,5808,148.5700073242187500,21.1082000732421880,35.2296981811523440,222.8852996826172000,131.9895019531250000,21.0983295440673830,30.1012401580810550,66,117,88,81,62,14986,2148352173,2149083373,2150675657,2147883108,2147855040,2148235163,2149526226,2147319533,534,2,15,59979
1359154537,5809,144.8999938964843800,21.3701000213623050,35.2583999633789060,223.1293029785156200,123.9770965576171900,21.3440799713134770,29.9843692779541000,77,113,87,81,62,14981,2148413805,2149147693,2150736749,2147886912,2147881856,2148274633,2149571446,2147316626,2867,2,16,25912
1359154647,5806,140.6799926757812500,21.3861007690429700,35.2625007629394500,224.0025024414062500,122.7111968994140600,21.3829193115234380,29.9241294860839840,76,114,88,82,62,14978,2148636224,2149547620,2151319405,2147891410,2147983296,2148502189,2149827913,2147343104,3517,2,16,4820
1359154738,5806,136.6300048828125000,21.4216995239257800,35.2663002014160160,224.2850952148437500,121.6328964233398400,21.4160099029541000,29.8960704803466800,79,113,87,82,63,14979,2148857673,2149927945,2151859428,2147896246,2148082569,2148720310,2150078418,2147361718,505,2,15,20995
1359154826,5809,132.6799926757812500,21.5212993621826170,35.2738990783691400,224.6235046386718800,118.3251037597656200,21.5175304412841800,29.8361301422119140,84,112,90,82,61,14971,2149115757,2150339894,2152420672,2147904228,2148196608,2148942125,2150326171,2147383158,868,2,15,63318
1359154925,5807,128.6999969482422000,21.7208995819091800,35.2878990173339840,225.4095001220703000,112.1116027832031200,21.7083206176757800,29.7167797088623050,93,116,87,82,61,14959,2149461677,2150862646,2153122614,2147912932,2148341248,2149224265,2150650368,2147410432,3197,2,16,56494
1359155038,5810,125.1800003051757800,21.8479995727539060,35.2881011962890600,226.6822967529297000,107.8131027221679700,21.8403797149658200,29.5987205505371100,101,119,89,82,62,14951,2149792091,2151336027,2153708854,2147922788,2148476864,2149441536,2150883017,2147430966,2878,1,16,251
1359155203,5809,121.1900024414062500,21.8959999084472660,35.2863006591796900,227.7386016845703000,106.2950973510742200,21.8870296478271500,29.5277194976806640,101,115,89,82,61,14952,2150405476,2152247542,2154873088,2147938011,2148729060,2149887652,2151361810,2147474441,2241,2,16,2120
1359155366,5809,116.5299987792968800,21.9342002868652340,35.2849006652832000,228.3343963623047000,104.8841018676757800,21.9303894042968750,29.4804801940917970,103,118,88,83,62,14941,2151460617,2153638674,2156623579,2147966601,2149147830,2150556096,2152099584,2147544201,3028,1,16,4201
1359155454,5809,112.4000015258789000,22.1096000671386720,35.2714004516601560,228.1192016601562500,100.6818008422851600,22.0595893859863280,29.4368705749511720,108,118,89,83,60,14935,2152604196,2155140251,2158444708,2148001316,2149585024,2151204699,2152781412,2147609033,2726,2,16,11119
1359155542,5808,108.8499984741211000,22.1931991577148440,35.2729988098144500,228.3708038330078000,96.4022369384765600,22.1912193298339840,29.3700199127197270,114,121,90,83,61,14922,2153797339,2156613805,2160169984,2148032210,2150025865,2151815158,2153393682,2147670034,13,2,15,17999
1359155654,5808,104.8000030517578100,22.4088001251220700,35.2711982727050800,229.5583038330078000,90.1418304443359400,22.3838996887207030,29.2327499389648440,120,121,88,84,60,14917,2155609344,2158777801,2162579712,2148088173,2150680649,2152689792,2154283986,2147763629,376,3,15,43386
1359155742,5807,100.5899963378906200,22.5491008758544920,35.2648010253906250,230.1239013671875000,86.0600128173828100,22.5095996856689450,29.1534996032714840,123,120,88,82,62,14910,2158236434,2161854610,2165893915,2148172800,2151635309,2153905901,2155460288,2147887149,762,2,15,7040
1359155797,5808,97.9300003051757800,22.7978992462158200,35.2498016357421900,229.7756042480468800,78.9831085205078100,22.7276706695556640,29.0800800323486330,133,121,91,83,61,14906,2159876653,2163748086,2167719716,2148215488,2152227849,2154583387,2156096301,2147959533,1241,2,16,454
1359155852,5809,95.7799987792968800,22.8630008697509770,35.2519989013671900,230.0110015869140600,76.2875900268554700,22.8107891082763670,29.0344200134277340,137,121,90,84,62,14894,2161692160,2165780224,2169806948,2148270619,2152861284,2155376868,2156822802,2148044077,1134,2,16,3947
1359155907,5809,94.0100021362304700,22.9533996582031250,35.2528991699218750,230.1820983886718800,72.7003631591796900,22.9214401245117200,28.9809398651123050,142,121,90,84,62,14893,2163842057,2168183250,2172191917,2148355913,2153637074,2156304502,2157673152,2148149577,1499,2,16,1806
1359155975,5816,92.5000000000000000,23.1096992492675780,35.2557983398437500,230.9263000488281200,67.7589797973632800,23.0739498138427730,28.8829498291015620,136,123,90,83,61,14889,2164794697,2168904576,2172685714,2148360484,2153896155,2156523867,2157891748,2148163373,2724,1,16,59337
1359156318,5808,90.2699966430664000,23.8553009033203120,35.2607002258300800,232.1051940917968800,48.8531188964843750,23.6584300994873050,28.5891990661621100,106,118,93,83,60,14905,2170460708,2174587081,2177305718,2148484004,2156080402,2158818550,2159751533,2148381339,2452,2,17,55484
1359156406,5807,88.8000030517578100,24.1357002258300780,35.2813987731933600,232.4223937988281200,37.9420394897460940,23.9964904785156250,28.4377403259277340,98,123,90,84,59,14908,2172006765,2176137910,2178783497,2148507776,2156822774,2159729042,2160568320,2148464338,3265,2,16,39486
1359156628,5807,85.8899993896484400,24.2642993927001950,35.2988014221191400,234.0910949707031200,31.4444999694824220,24.1980800628662100,28.2793006896972660,87,120,91,84,59,14916,2176361590,2181097554,2183723977,2148702976,2159230134,2162420918,2162738322,2148702162,759,2,16,45628
1359156683,5808,83.7600021362304700,24.3078994750976560,35.3021011352539060,234.6696929931640600,27.9113597869873050,24.3077907562255860,28.2087593078613280,87,120,90,83,56,14915,2178893952,2183892681,2186349129,2148861723,2160946340,2164192164,2164103250,2148853915,1024,2,16,12445
1359156738,5810,81.5800018310546900,24.5025005340576170,35.3168983459472660,235.7651977539062500,22.6090507507324220,24.4725608825683600,28.0928707122802730,80,122,92,85,58,14915,2181172205,2186338212,2188670774,2149000256,2162882304,2166194514,2165673472,2149021138,1080,2,16,60613
1359156793,5806,79.7200012207031200,24.5261993408203120,35.3205986022949200,236.7154998779297000,21.2484092712402340,24.5148601531982420,28.0325698852539060,81,120,92,83,57,14920,2183760210,2189339117,2191727140,2149169161,2164753682,2168160621,2167208768,2149197686,1231,2,16,53359
1359156848,5807,77.9899978637695300,24.5342998504638670,35.3227005004882800,237.1585998535156200,20.8110504150390620,24.5284595489501950,28.0071601867675780,81,120,88,83,56,14915,2185693449,2191271323,2193306971,2149360658,2166749467,2170202057,2168789083,2149370989,1480,2,16,45316
1359156926,5805,74.8499984741211000,24.5608997344970700,35.3260993957519500,237.5807037353515600,19.8857994079589840,24.5572395324707030,27.9766407012939450,79,120,89,86,58,14914,2187522422,2193060205,2194728987,2149603748,2169293796,2172094134,2169542985,2149479826,1708,1,16,13440
1359156981,5808,71.9100036621093800,24.5958003997802730,35.3298988342285160,237.8002014160156200,18.8632793426513670,24.5890407562255860,27.9540405273437500,77,119,92,84,58,14917,2195675757,2202512694,2204482358,2150203949,2176685988,2180331291,2176326070,2150163245,1465,2,16,64484
1359157036,5804,69.0400009155273400,24.6403999328613280,35.3330001831054700,237.7563018798828000,17.3613090515136720,24.6357707977294920,27.9375190734863280,76,120,91,84,55,14916,2201524717,2209002212,2211409444,2150865901,2182112256,2185732379,2180261248,2150603803,977,1,16,31122
1359157091,5806,66.2699966430664000,24.6518001556396500,35.3348999023437500,237.6112976074218800,16.9155006408691400,24.6496391296386720,27.9385299682617200,73,120,92,85,55,14907,2204376320,2211639305,2213615670,2151239113,2186885366,2190150400,2183134619,2150900361,735,1,16,47322
1359157146,5804,63.4900016784668000,24.6926994323730470,35.3390007019043000,237.2566070556640600,15.5969600677490230,24.6906795501709000,27.9382495880126950,73,121,91,86,55,14908,2210942628,2218939181,2221081106,2152106395,2194456896,2197815250,2188778139,2151550710,743,2,16,57832
1359157201,5807,60.8600006103515600,24.7558994293212900,35.3353996276855500,236.8414001464843800,13.3263101577758790,24.7613697052001950,27.9291496276855470,70,121,88,84,57,14900,2215562688,2224221924,2226509494,2152926619,2200541174,2203771008,2193078610,2152049398,318,1,16,24841
1359157258,5809,58.5000000000000000,24.8729000091552730,35.3340988159179700,236.2648010253906200,9.9726495742797850,24.8658294677734380,27.9137592315673830,69,122,90,85,59,14889,2218161892,2226735954,2228394605,2153528274,2204980662,2207861641,2195842816,2152336594,3057,1,16,47781
1359157313,5806,56.3300018310546900,24.9083003997802730,35.3339996337890600,235.7465972900390600,8.5470018386840820,24.9102592468261720,27.9195804595947270,67,118,91,84,56,14893,2222963995,2232379977,2234128329,2154601673,2210997860,2213809216,2200066523,2152912420,2804,2,17,45892
1359157368,5811,54.1300010681152340,24.9235992431640620,35.3325996398925800,235.6051940917968800,8.0581159591674800,24.9255008697509770,27.9199199676513670,63,120,91,83,57,14902,2226834706,2236126738,2237951076,2155622646,2216803456,2219692864,2204157915,2153461604,2956,1,16,58616
1359157423,5809,51.8899993896484400,24.9349994659423830,35.3306007385253900,235.4649047851562500,7.5901780128479000,24.9400806427001950,27.9205207824707030,60,120,91,84,60,14898,2235966774,2246146057,2248938386,2157344018,2226690870,2229878281,2211698422,2154518262,3294,1,16,11140
1359157478,5807,49.6500015258789060,24.9367008209228500,35.3293991088867200,235.4611053466797000,7.5606732368469240,24.9409999847412100,27.9205207824707030,61,119,90,84,55,14903,2244091730,2255536576,2259169874,2159316379,2234019181,2237519296,2217078546,2155277906,3557,1,16,62928
1359157533,5807,47.4700012207031250,24.9365997314453120,35.3291015625000000,235.3347015380859400,7.4957637786865230,24.9430198669433600,27.9254302978515620,59,118,90,84,57,14902,2247920274,2258776228,2262128740,2160845979,2241732525,2244977627,2222167341,2156018532,3499,1,17,8707
1359157611,5810,44.0000000000000000,24.9370002746582030,35.3282012939453100,235.5106964111328000,7.5241870880126950,24.9421405792236330,27.9175891876220700,59,119,91,83,53,14895,2255382299,2265779949,2269022363,2164296768,2254599533,2257479222,2230467995,2157386459,3419,2,17,30351
1359157666,5803,41.0800018310546900,24.9370002746582030,35.3275985717773440,235.5261993408203000,7.4428529739379880,24.9446697235107420,27.9160804748535160,58,118,92,84,57,14898,2269288219,2281219081,2285760850,2169379593,2269689005,2272807625,2241356873,2159264694,3436,1,16,20477
1359157721,5812,38.2799987792968750,24.9381008148193360,35.3270988464355500,235.5908050537109400,7.4174790382385250,24.9454593658447270,27.9127502441406250,57,120,91,84,54,14892,2281019337,2293387995,2298714486,2174372928,2283840768,2286735698,2251028123,2161165686,3400,1,16,28382
1359157776,5805,35.6100006103515600,24.9423999786376950,35.3270988464355500,235.6920928955078000,7.2724170684814450,24.9499893188476560,27.9063796997070300,55,118,93,84,58,14895,2284154176,2296146313,2301655917,2178463506,2295249170,2297773778,2258127899,2162334125,3114,2,16,2833
1359157831,5807,33.0499992370605500,24.9416999816894530,35.3272018432617200,235.7678985595703000,7.2251110076904300,24.9514598846435550,27.9022502899169920,55,118,93,84,59,14894,2301602285,2315296740,2322327049,2186401600,2315218614,2317596022,2272871990,2165484233,3095,1,17,7947
1359157886,5809,30.4599990844726560,24.9412994384765620,35.3283996582031250,235.9167938232422000,7.1102409362792970,24.9550399780273440,27.8941307067871100,54,118,90,84,57,14893,2317579876,2331259410,2339228992,2196504576,2335761910,2338211648,2287233316,2168743826,3062,2,16,9816
1359157943,5812,27.6299991607666000,24.9444007873535160,35.3270988464355500,235.9474945068359400,7.0317602157592770,24.9574909210205080,27.8917808532714840,54,119,91,84,57,14896,2331717376,2346100918,2354758646,2207238482,2353418660,2354933193,2298905179,2172207625,2986,1,16,14627
1359157998,5809,24.7800006866455080,24.9454994201660160,35.3275985717773440,235.9860992431640600,6.9088249206542970,24.9613208770751950,27.8885192871093750,54,119,91,84,59,14901,2360072850,2378345261,2390837293,2226147318,2362946715,2362734189,2303314404,2174358390,2938,2,15,43657
